Location: Carbonear
(47.7333°N, 53.2500°W)
Time: 15:16:11
(UTC+00:00)

CUTE-I - Pass Details

Date: 05 December 2022
Orbit: 809 x 824 km, 98.7° (Epoch: 05 February)

Event Time Altitude Azimuth Distance (km) Brightness Sun altitude
Rises 21:59:56 0° 200° (SSW) 3,323 ? -22.3°
Reaches altitude 10° 22:02:41 10° 214° (SW) 2,399 ? -22.8°
Maximum altitude 22:06:57 24° 268° (W) 1,626 ? -23.5°
Drops below altitude 10° 22:11:15 10° 321° (NW) 2,422 ? -24.2°
Sets 22:14:04 0° 335° (NNW) 3,362 ? -24.7°
